Flag for Germany Weather past 2 weeks in Stuttgart, Baden-Württemberg, Germany

Now
64 °F

Passing clouds.


Feels Like: 64 °F
Forecast: 45 / 69 °F
Wind: 9 mph from North

Location: Stuttgart-Echterdingen

Current Time: May 23, 2015 at 3:29:56 PM

Latest Report: May 23, 2015 at 2:50 PM


Visibility: N/A

Pressure: 30.07 "Hg

Humidity: 43%

Dew point: 41 °F

Location of StuttgartLocation

Historic Weather in Stuttgart — Graph

°F

Stuttgart temperature yesterday

Maximum temperature yesterday: 64 °F (at 3:50 PM)
Minimum temperature yesterday: 37 °F (at 5:50 AM)
Average temperature yesterday: 53 °F

Past Weeks' High & Low Weather Summary

 TemperatureHumidityPressure
High84 °F (May 12, 2:20 PM)100% (May 15, 4:20 AM)30.36 "Hg (May 15, 4:20 AM)
Low37 °F (May 22, 5:50 AM)23% (May 8, 2:20 PM)29.74 "Hg (May 18, 6:20 PM)
Average58 °F67%30.09 "Hg
* Reported May 8 2:20 PM — May 23 2:20 PM, Stuttgart, Weather by CustomWeather, © 2015

Note: Actual official high and low records may vary slightly from our data, if they occured in-between our weather recording intervals... More about our weather records

Advertising

Stuttgart weather history for previous 24 hours

 ConditionsComfort  
Time TempWeatherWind HumidityBarometerVisibility
2:20 PM
Sat, May 23
64 °FPassing clouds.8 mph46%30.07 "HgN/A
1:50 PM63 °FPassing clouds.8 mph45%30.09 "HgN/A
1:20 PM63 °FPassing clouds.7 mph49%30.09 "HgN/A
12:50 PM63 °FPassing clouds.7 mph49%30.09 "HgN/A
12:20 PM63 °FScattered clouds.10 mph49%30.09 "HgN/A
11:50 AM63 °FScattered clouds.6 mph49%30.09 "HgN/A
11:20 AM61 °FScattered clouds.3 mph55%30.12 "HgN/A
10:50 AM59 °FScattered clouds.2 mph59%30.12 "HgN/A
10:20 AM57 °FPassing clouds.3 mph63%30.12 "HgN/A
9:50 AM55 °FPassing clouds.3 mph67%30.12 "HgN/A
9:20 AM54 °FSunny.2 mph67%30.12 "Hg10 mi
8:50 AM52 °FSunny.2 mph77%30.12 "Hg10 mi
8:20 AM52 °FPassing clouds.3 mph77%30.12 "HgN/A
7:50 AM50 °FSunny.2 mph76%30.12 "Hg10 mi
7:20 AM48 °FSunny.2 mph82%30.12 "Hg10 mi
6:50 AM46 °FSunny.2 mph87%30.09 "Hg10 mi
6:20 AM45 °FClear.2 mph87%30.09 "Hg10 mi
5:50 AM43 °FClear.1 mph87%30.09 "Hg10 mi
5:20 AM43 °FClear.1 mph87%30.09 "Hg10 mi
4:50 AM45 °FClear.2 mph81%30.09 "Hg10 mi
4:20 AM46 °FClear.1 mph76%30.12 "Hg10 mi
3:50 AM46 °FClear.5 mph76%30.12 "Hg10 mi
3:20 AM46 °FClear.2 mph76%30.12 "Hg10 mi
2:50 AM46 °FClear.3 mph76%30.12 "Hg10 mi
2:20 AM48 °FClear.1 mph71%30.12 "Hg10 mi
1:50 AM48 °FClear.5 mph66%30.15 "Hg10 mi
1:20 AM48 °FClear.3 mph71%30.15 "Hg10 mi
12:50 AM52 °FClear.1 mph58%30.15 "Hg10 mi
12:20 AM52 °FClear.1 mph58%30.15 "Hg10 mi
11:50 PM
Fri, May 22
54 °FClear.6 mph54%30.15 "Hg10 mi
11:20 PM55 °FClear.7 mph51%30.15 "Hg10 mi
10:50 PM55 °FClear.7 mph51%30.15 "Hg10 mi
10:20 PM55 °FClear.7 mph51%30.18 "Hg10 mi
9:50 PM57 °FSunny.7 mph48%30.18 "Hg10 mi
9:20 PM57 °FSunny.6 mph48%30.15 "Hg10 mi
8:50 PM59 °FSunny.6 mph45%30.15 "Hg10 mi
8:20 PM59 °FSunny.8 mph42%30.15 "Hg10 mi
7:50 PM61 °FPassing clouds.7 mph39%30.15 "HgN/A
7:20 PM61 °FPassing clouds.9 mph36%30.15 "HgN/A
6:50 PM63 °FPassing clouds.10 mph34%30.15 "HgN/A
6:20 PM63 °FPassing clouds.10 mph34%30.15 "HgN/A
5:50 PM64 °FPassing clouds.9 mph32%30.18 "HgN/A
5:20 PM64 °FPassing clouds.10 mph30%30.18 "HgN/A
4:50 PM64 °FPassing clouds.12 mph30%30.18 "HgN/A
4:20 PM64 °FPassing clouds.9 mph32%30.18 "HgN/A
3:50 PM64 °FPassing clouds.8 mph28%30.21 "HgN/A
3:20 PM63 °FSunny.6 mph27%30.21 "Hg10 mi
Weather by CustomWeather, © 2015

See weather overviewHow to use our weather pages